Location: *
(50.2903°S, 172.5375°W)
Time: 20:47:49
(UTC+00:00)

STARLINK 1022 - Pass Details

Date: 17 November 2019
Orbit: 469 x 470 km, 53.0° (Epoch: 14 December)

Event Time Altitude Azimuth Distance (km) Brightness Sun altitude
Rises 12:00:28 0° 252° (WSW) 2,507 7.1 -20.0°
Reaches altitude 10° 12:02:37 10° 250° (WSW) 1,634 6.1 -19.9°
Maximum altitude 12:06:18 72° 165° (SSE) 503 3.5 -19.8°
Drops below altitude 10° 12:10:00 10° 79° (E) 1,641 6.1 -19.7°
Sets 12:12:10 0° 77° (ENE) 2,518 7.0 -19.6°
